EW6498 Weather Reports


time (UTC)temp
C
wind
direction
speed
KPH
gust
KPH
rain 1hr
cm
rain 24hr
cm
rain mn
cm
humidity
%
barometer
mb
20260506201516 17 248 4.8 9.7 0.00 0.66 0.66 87 1004.8
20260506200516 17 225 6.4 11.3 0.00 0.66 0.66 87 1004.9
20260506195516 17 270 6.4 11.3 0.00 0.66 0.66 87 1005.0
20260506194516 16 270 8.0 14.5 0.00 0.66 0.66 87 1005.0
20260506193516 16 270 8.0 12.9 0.00 0.66 0.66 87 1005.2
20260506192516 16 270 6.4 16.1 0.03 0.66 0.66 87 1005.3
20260506191516 16 270 9.7 20.9 0.05 0.66 0.66 87 1005.3
20260506190516 16 270 8.0 12.9 0.08 0.66 0.66 87 1005.5
20260506185516 16 270 8.0 17.7 0.10 0.66 0.66 87 1005.6
20260506184516 16 270 8.0 12.9 0.10 0.66 0.66 87 1005.7
20260506183515 16 270 9.7 16.1 0.13 0.66 0.66 87 1005.8
20260506182516 16 270 6.4 11.3 0.10 0.64 0.64 87 1005.8
20260506181516 16 270 6.4 14.5 0.15 0.61 0.61 87 1005.9
20260506180536 16 270 6.4 9.7 0.18 0.58 0.58 87 1005.9
20260506175516 16 270 4.8 11.3 0.15 0.56 0.56 87 1005.9
20260506174515 16 270 8.0 17.7 0.15 0.56 0.56 87 1006.0
20260506173515 16 248 6.4 11.3 0.15 0.53 0.53 87 1006.0
20260506172516 16 270 9.7 24.1 0.15 0.53 0.53 86 1006.2
20260506171556 16 248 8.0 17.7 0.10 0.46 0.46 86 1006.2
20260506170516 16 270 6.4 22.5 0.08 0.41 0.41 86 1006.2
20260506165515 16 248 6.4 16.1 0.10 0.41 0.41 86 1006.1
20260506164515 16 270 9.7 19.3 0.15 0.41 0.41 86 1006.4
20260506163515 16 225 8.0 14.5 0.18 0.38 0.38 86 1006.2
20260506162515 16 248 6.4 14.5 0.23 0.38 0.38 86 1006.2
20260506161515 16 270 4.8 11.3 0.23 0.36 0.36 86 1006.2
20260506160516 16 225 6.4 16.1 0.20 0.33 0.33 86 1006.4
20260506155515 16 270 6.4 14.5 0.20 0.30 0.30 86 1007.0
20260506154515 16 248 8.0 19.3 0.18 0.25 0.25 85 1007.2
20260506153536 16 225 9.7 19.3 0.18 0.20 0.20 85 1007.3
20260506152515 17 225 8.0 16.1 0.15 0.15 0.15 85 1007.4
20260506151515 17 225 6.4 14.5 0.13 0.13 0.13 85 1007.1
20260506150515 17 203 8.0 16.1 0.13 0.13 0.13 84 1006.9
20260506145515 17 270 6.4 12.9 0.10 0.10 0.10 83 1007.1
20260506144515 17 225 6.4 16.1 0.08 0.08 0.08 83 1007.0
20260506143515 18 270 8.0 19.3 0.03 0.03 0.03 81 1007.4
20260506142517 18 270 6.4 14.5 0.00 0.00 0.00 80 1007.3
20260506141515 18 248 6.4 11.3 0.00 0.00 0.00 80 1007.1
20260506140517 18 270 8.0 24.1 0.00 0.00 0.00 80 1007.0
20260506135517 18 270 9.7 16.1 0.00 0.00 0.00 80 1007.2
20260506134517 18 270 9.7 14.5 0.00 0.00 0.00 79 1007.2
20260506133517 18 270 8.0 14.5 0.00 0.00 0.00 78 1007.3
20260506132517 18 270 8.0 20.9 0.00 0.00 0.00 78 1007.4
20260506131517 18 270 9.7 17.7 0.00 0.00 0.00 77 1007.4
20260506130537 18 270 8.0 16.1 0.00 0.00 0.00 76 1007.6
20260506125515 18 270 8.0 14.5 0.00 0.00 0.00 75 1007.5
20260506124517 18 270 6.4 14.5 0.00 0.00 0.00 75 1007.4
20260506123537 18 270 3.2 8.0 0.00 0.00 0.00 76 1007.3
20260506122517 18 225 6.4 12.9 0.00 0.00 0.00 76 1007.2
20260506121517 18 225 6.4 11.3 0.00 0.00 0.00 76 1007.2
20260506120517 18 203 4.8 11.3 0.00 0.00 0.00 76 1007.2
20260506115517 18 248 4.8 12.9 0.00 0.00 0.00 76 1007.3
20260506114517 18 248 6.4 12.9 0.00 0.00 0.00 76 1007.3
20260506113517 18 270 8.0 17.7 0.00 0.00 0.00 75 1007.4
20260506112517 18 225 4.8 11.3 0.00 0.00 0.00 75 1007.5
20260506111517 18 248 3.2 14.5 0.00 0.00 0.00 75 1007.3
20260506110517 18 225 8.0 14.5 0.00 0.00 0.00 75 1007.1
20260506105517 18 225 6.4 14.5 0.00 0.00 0.00 75 1007.1
20260506104517 18 225 6.4 14.5 0.00 0.00 0.00 75 1006.9
20260506103517 18 248 6.4 12.9 0.00 0.00 0.00 75 1006.7
20260506102517 18 225 6.4 17.7 0.00 0.00 0.00 74 1006.7
20260506101517 18 203 4.8 9.7 0.00 0.00 0.00 74 1006.8
20260506100517 18 270 6.4 17.7 0.00 0.00 0.00 74 1007.0
20260506095517 18 225 8.0 16.1 0.00 0.00 0.00 74 1007.0
20260506094517 19 270 6.4 9.7 0.00 0.00 0.00 73 1006.8
20260506093517 19 293 4.8 12.9 0.00 0.00 0.00 73 1006.9
20260506092517 19 270 4.8 14.5 0.00 0.00 0.00 73 1006.9
20260506091517 19 270 6.4 17.7 0.00 0.00 0.00 72 1006.7
20260506090516 19 225 4.8 11.3 0.00 0.00 0.00 72 1007.0
20260506085516 19 248 6.4 19.3 0.00 0.08 0.00 72 1007.0
20260506084537 19 203 4.8 6.4 0.00 0.08 0.00 71 1007.1
20260506083517 19 248 4.8 11.3 0.00 0.08 0.00 71 1007.1
20260506082537 19 270 4.8 12.9 0.00 0.08 0.00 70 1007.0
20260506081517 19 270 4.8 14.5 0.00 0.08 0.00 70 1007.1
20260506080517 19 270 6.4 11.3 0.00 0.08 0.00 69 1007.0
20260506073517 19 180 3.2 8.0 0.00 0.08 0.00 67 1007.2
20260506072516 20 225 4.8 12.9 0.00 0.08 0.00 66 1007.2
20260506071517 20 270 4.8 14.5 0.00 0.08 0.00 65 1007.2
20260506070516 20 270 4.8 12.9 0.00 0.08 0.00 65 1007.2
20260506062516 20 248 4.8 11.3 0.00 0.08 0.00 62 1007.6
20260506061516 20 270 8.0 17.7 0.00 0.08 0.00 62 1007.6
20260506060516 20 270 6.4 12.9 0.00 0.08 0.00 61 1007.8
20260506050516 20 270 6.4 16.1 0.00 0.08 0.00 61 1008.1
20260506044516 20 270 6.4 12.9 0.00 0.08 0.00 61 1008.1
20260506043516 20 225 6.4 16.1 0.00 0.08 0.00 61 1008.1
20260506042516 20 203 4.8 11.3 0.00 0.08 0.00 60 1008.2
20260506041516 20 248 6.4 19.3 0.00 0.08 0.00 60 1008.1
20260506040516 20 203 4.8 11.3 0.00 0.08 0.00 58 1008.1
20260506035517 21 203 6.4 12.9 0.00 0.08 0.08 57 1008.1
20260506034517 21 248 6.4 17.7 0.00 0.08 0.08 55 1008.1
20260506033517 21 248 6.4 12.9 0.00 0.08 0.08 54 1007.9
20260506032557 21 225 8.0 17.7 0.00 0.08 0.08 53 1007.9
20260506031517 21 225 8.0 17.7 0.00 0.08 0.08 52 1007.9
20260506030537 22 270 9.7 17.7 0.00 0.08 0.08 52 1007.9
20260506025537 22 270 8.0 20.9 0.00 0.08 0.08 51 1007.8
20260506024517 22 293 8.0 16.1 0.00 0.08 0.08 50 1007.8
20260506023516 22 225 9.7 16.1 0.00 0.08 0.08 49 1007.9
20260506022517 22 248 11.3 20.9 0.00 0.08 0.08 48 1007.9
20260506021517 23 225 11.3 22.5 0.00 0.08 0.08 47 1007.8
20260506020517 23 225 9.7 17.7 0.00 0.08 0.08 47 1007.7
20260506015516 23 203 9.7 20.9 0.00 0.08 0.08 47 1007.7
20260506014537 23 225 8.0 22.5 0.00 0.08 0.08 47 1007.6
20260506013517 23 225 11.3 20.9 0.00 0.08 0.08 47 1007.5
20260506012517 23 225 8.0 16.1 0.00 0.08 0.08 46 1007.4
20260506011556 23 225 6.4 14.5 0.00 0.08 0.08 45 1007.4
20260506010517 23 248 8.0 17.7 0.00 0.08 0.08 43 1007.2
20260506005517 24 270 6.4 11.3 0.00 0.08 0.08 43 1007.1
20260506004516 24 270 8.0 20.9 0.00 0.08 0.08 43 1006.9
20260506003517 24 270 8.0 19.3 0.00 0.08 0.08 42 1006.9
20260506002517 24 225 6.4 12.9 0.00 0.08 0.08 42 1006.6
20260506001517 24 270 8.0 17.7 0.00 0.08 0.08 41 1006.6
20260506000516 25 248 6.4 12.9 0.00 0.08 0.08 40 1006.5
20260505235536 25 248 8.0 12.9 0.00 0.08 0.08 39 1006.5
20260505234536 25 270 9.7 22.5 0.00 0.08 0.08 38 1006.4
20260505233516 25 225 9.7 20.9 0.00 0.08 0.08 38 1006.3
20260505232536 25 270 12.9 25.7 0.00 0.08 0.08 38 1006.3
20260505231516 25 270 8.0 14.5 0.00 0.08 0.08 38 1006.2
20260505230516 26 270 11.3 17.7 0.00 0.08 0.08 38 1006.3
20260505225516 26 248 11.3 22.5 0.00 0.08 0.08 38 1006.0
20260505224536 26 248 12.9 24.1 0.00 0.08 0.08 37 1005.9
20260505223516 26 270 9.7 19.3 0.00 0.08 0.08 37 1005.9
20260505222516 26 270 11.3 20.9 0.00 0.08 0.08 37 1005.7
20260505221516 26 270 14.5 25.7 0.00 0.08 0.08 37 1005.6
20260505220516 26 270 11.3 19.3 0.00 0.08 0.08 38 1005.7
20260505215536 26 270 12.9 25.7 0.00 0.08 0.08 37 1005.7
20260505214516 26 270 16.1 35.4 0.00 0.08 0.08 37 1005.8
20260505213516 26 225 17.7 30.6 0.00 0.08 0.08 37 1005.8
20260505212516 26 270 16.1 29.0 0.00 0.08 0.08 37 1005.8
20260505211516 27 270 16.1 27.4 0.00 0.08 0.08 36 1005.8
20260505210516 27 270 17.7 38.6 0.00 0.08 0.08 36 1005.6
20260505205516 27 225 14.5 35.4 0.00 0.08 0.08 37 1005.7
20260505204516 26 225 12.9 22.5 0.00 0.08 0.08 36 1005.6
20260505203516 26 270 14.5 25.7 0.00 0.08 0.08 37 1005.6
20260505202516 27 225 14.5 30.6 0.00 0.08 0.08 35 1005.5